DW3039 Karjalohja FI current weather conditions

sailwx.info

Wind from 316 at 8 knots gusting 19

Air temperature 2.8° C
Dewpoint 1.9° C

Last reported at 2014-Sep-23 03:50 UTC.
Time now 2014-Sep-23 04:20 UTC

Location: N 60°16' E 023°41'.
View on Google Maps.

See reports from other nearby stations

  
Tides and Currents Weather Stations Pressure Air Temp Water Temp Dewpoint Dewpoint Depression Visibility Wind Speed Wind Dir Waves Ship Positions
date/time (UTC)wind fromknots sea level pressurealtimeterstation pressurevisibilityair tempwater tempwave heightnotes
2014-Sep-23 03:50 316 8 gusting 19 2.8
2014-Sep-23 03:40 350 7 gusting 17 2.8
2014-Sep-23 03:30 352 8 gusting 17 2.8
2014-Sep-23 03:20 356 5 gusting 16 2.8
2014-Sep-23 03:10 335 6 gusting 16 2.8
2014-Sep-23 03:00 040 2 gusting 14 2.8
2014-Sep-23 02:50 349 6 gusting 13 2.8
2014-Sep-23 02:40 003 7 gusting 16 2.8
2014-Sep-23 02:30 339 6 gusting 15 2.8
2014-Sep-23 02:20 005 3 gusting 16 2.8
2014-Sep-23 02:10 003 6 gusting 16 2.8
2014-Sep-23 01:59 010 6 gusting 18 2.8
2014-Sep-23 01:49 357 5 gusting 13 2.8
2014-Sep-23 01:39 343 6 gusting 13 2.8
2014-Sep-23 01:29 018 7 gusting 13 2.8
2014-Sep-23 01:19 003 7 gusting 15 2.8
2014-Sep-23 01:09 012 4 gusting 19 2.8
2014-Sep-23 00:59 012 6 gusting 13 2.8
2014-Sep-23 00:49 330 6 gusting 19 2.8
2014-Sep-23 00:39 321 5 gusting 16 3.3
2014-Sep-23 00:29 358 5 gusting 13 3.3
2014-Sep-23 00:19 348 6 gusting 12 3.3
2014-Sep-23 00:09 334 6 gusting 14 3.3
2014-Sep-22 23:59 324 3 gusting 13 3.3
2014-Sep-22 23:49 339 5 gusting 13 3.3
2014-Sep-22 23:39 3.3
2014-Sep-22 23:29 006 6 gusting 13 3.3
2014-Sep-22 23:19 018 6 gusting 18 3.9
2014-Sep-22 23:09 332 7 gusting 12 3.9
2014-Sep-22 22:59 322 6 gusting 15 3.9
2014-Sep-22 22:49 040 6 gusting 13 3.9
2014-Sep-22 22:39 337 4 gusting 10 3.9
2014-Sep-22 22:29 337 6 gusting 11 3.9
2014-Sep-22 22:19 321 7 gusting 17 3.9
2014-Sep-22 22:09 341 5 gusting 15 4.4
2014-Sep-22 21:59 340 5 gusting 11 4.4
2014-Sep-22 21:49 346 5 gusting 11 4.4
2014-Sep-22 21:39 336 4 gusting 13 4.4
2014-Sep-22 21:29 336 6 gusting 11 4.4
2014-Sep-22 21:19 335 5 gusting 11 4.4
2014-Sep-22 21:09 346 6 gusting 14 4.4
2014-Sep-22 20:59 345 4 gusting 10 4.4
2014-Sep-22 20:49 350 6 gusting 13 4.4
2014-Sep-22 20:39 019 3 gusting 13 4.4
2014-Sep-22 20:29 355 6 gusting 14 4.4
2014-Sep-22 20:19 347 5 gusting 11 4.4
2014-Sep-22 20:09 337 5 gusting 18 4.4
2014-Sep-22 19:59 349 7 gusting 13 4.4
2014-Sep-22 19:49 347 9 gusting 15 4.4
2014-Sep-22 19:39 358 8 gusting 16 4.4
2014-Sep-22 19:28 015 8 gusting 19 4.4
2014-Sep-22 19:18 015 6 gusting 16 4.4
2014-Sep-22 19:08 342 7 gusting 17 4.4
2014-Sep-22 18:58 321 6 gusting 14 5.0
2014-Sep-22 18:48 003 7 gusting 13 5.0
2014-Sep-22 18:38 004 6 gusting 12 5.0
2014-Sep-22 18:28 026 6 gusting 14 5.6
2014-Sep-22 18:18 033 6 gusting 15 5.6
2014-Sep-22 18:08 008 6 gusting 12 5.6
2014-Sep-22 17:58 355 8 gusting 19 5.6
2014-Sep-22 17:48 356 6 gusting 15 5.6
2014-Sep-22 17:38 358 6 gusting 12 5.6
2014-Sep-22 17:28 345 8 gusting 15 5.6
2014-Sep-22 17:18 350 3 gusting 13 5.6
2014-Sep-22 17:08 014 7 gusting 14 6.1
2014-Sep-22 16:58 349 7 gusting 16 6.1
2014-Sep-22 16:48 008 7 gusting 13 6.1
2014-Sep-22 16:38 355 5 gusting 16 6.1
2014-Sep-22 16:28 016 6 gusting 14 6.1
2014-Sep-22 16:18 029 5 gusting 13 6.1
2014-Sep-22 16:08 353 6 gusting 15 6.1
2014-Sep-22 15:58 004 6 gusting 15 6.1
2014-Sep-22 15:48 350 7 gusting 16 6.7
2014-Sep-22 15:38 044 6 gusting 13 6.7
2014-Sep-22 15:28 349 5 gusting 17 6.7
2014-Sep-22 15:18 354 6 gusting 17 6.7
2014-Sep-22 15:08 005 8 gusting 15 7.2
2014-Sep-22 14:58 357 6 gusting 12 7.2
2014-Sep-22 14:47 348 5 gusting 15 7.2
2014-Sep-22 14:37 016 6 gusting 18 7.8
2014-Sep-22 14:27 027 8 gusting 15 7.8
2014-Sep-22 14:17 348 6 gusting 16 7.8
2014-Sep-22 14:07 7.8
2014-Sep-22 13:57 356 7 gusting 11 8.3
2014-Sep-22 13:47 027 5 gusting 13 8.3
2014-Sep-22 13:37 024 5 gusting 16 8.3
2014-Sep-22 13:27 342 9 gusting 16 8.3
2014-Sep-22 13:17 359 7 gusting 14 8.9
2014-Sep-22 13:07 010 6 gusting 13 8.9
2014-Sep-22 12:57 8.9
2014-Sep-22 12:47 001 8 gusting 16 8.9
2014-Sep-22 12:37 347 6 gusting 16 9.4
2014-Sep-22 12:27 006 6 gusting 13 9.4
2014-Sep-22 12:17 021 6 gusting 12 10.0
2014-Sep-22 12:07 006 6 gusting 13 10.0
2014-Sep-22 11:57 014 5 gusting 13 10.6
2014-Sep-22 11:47 017 6 gusting 12 10.6
2014-Sep-22 11:37 358 6 gusting 14 11.1
2014-Sep-22 11:27 355 6 gusting 13 12.2
2014-Sep-22 11:17 016 4 gusting 6 12.2
2014-Sep-22 11:07 003 2 gusting 8 12.2
2014-Sep-22 10:57 013 3 gusting 7 12.2
2014-Sep-22 10:47 353 3 gusting 6 12.2
2014-Sep-22 10:37 015 3 gusting 6 12.2
2014-Sep-22 10:27 351 0 gusting 6 12.2
2014-Sep-22 10:17 013 12.2
2014-Sep-22 10:07 305 0 gusting 6 12.2
2014-Sep-22 09:57 012 1 gusting 7 12.2
2014-Sep-22 09:47 009 0 gusting 4 12.2
2014-Sep-22 09:37 009 0 gusting 3 12.2
2014-Sep-22 09:27 047 2 gusting 5 12.2
2014-Sep-22 09:17 042 12.2
2014-Sep-22 09:07 042 12.2
2014-Sep-22 08:57 046 2 gusting 6 12.2
2014-Sep-22 08:47 041 2 gusting 6 12.2
2014-Sep-22 08:37 005 1 gusting 6 12.2
2014-Sep-22 08:27 330 12.2
2014-Sep-22 08:16 063 12.2
2014-Sep-22 08:06 044 0 gusting 3 12.2
2014-Sep-22 07:56 343 1 gusting 4 12.2
2014-Sep-22 07:46 046 2 gusting 6 12.2
2014-Sep-22 07:36 035 1 gusting 5 12.2
2014-Sep-22 07:26 029 3 gusting 6 12.2
2014-Sep-22 07:16 034 0 gusting 6 12.2
2014-Sep-22 07:06 045 0 gusting 6 12.2
2014-Sep-22 06:56 029 12.2
2014-Sep-22 06:45 047 4 gusting 6 12.2
2014-Sep-22 06:35 024 2 gusting 7 12.2
2014-Sep-22 06:25 057 4 gusting 7 12.2
2014-Sep-22 06:15 063 0 gusting 4 12.2
2014-Sep-22 06:05 056 11.7
2014-Sep-22 05:55 056 11.7
2014-Sep-22 05:45 042 3 gusting 5 11.7
2014-Sep-22 05:35 064 11.7
2014-Sep-22 05:25 032 11.7
2014-Sep-22 05:15 038 0 gusting 6 11.7
2014-Sep-22 05:05 049 1 gusting 5 11.7
2014-Sep-22 04:55 027 1 gusting 6 11.7
2014-Sep-22 04:45 015 11.7
2014-Sep-22 04:35 046 0 gusting 5 11.7
2014-Sep-22 04:25 056 1 gusting 5 11.7
2014-Sep-22 04:15 033 11.7
2014-Sep-22 04:05 076 11.7
2014-Sep-22 03:55 076 11.7
2014-Sep-22 03:45 076 11.7
2014-Sep-22 03:35 042 2 gusting 6 11.7
2014-Sep-22 03:25 052 2 gusting 5 11.7
2014-Sep-22 03:15 053 1 gusting 6 11.7
2014-Sep-22 03:05 005 11.7
2014-Sep-22 02:55 005 11.7
2014-Sep-22 02:45 005 11.1
2014-Sep-22 02:35 051 1 gusting 5 11.1
2014-Sep-22 02:25 043 11.7
2014-Sep-22 02:15 042 1 gusting 6 11.7
2014-Sep-22 02:05 058 1 gusting 5 11.7
2014-Sep-22 01:55 040 3 gusting 6 11.7
2014-Sep-22 01:45 029 0 gusting 5 11.7
2014-Sep-22 01:34 047 11.7
2014-Sep-22 01:24 032 2 gusting 5 11.7
2014-Sep-22 01:14 047 11.7
2014-Sep-22 01:04 014 11.7
2014-Sep-22 00:54 039 3 gusting 6 11.7
2014-Sep-22 00:44 018 3 gusting 6 11.7
2014-Sep-22 00:34 020 0 gusting 4 11.1
2014-Sep-22 00:24 045 11.1
2014-Sep-22 00:14 045 11.1
2014-Sep-22 00:04 045 11.7
2014-Sep-21 23:54 045 11.7
2014-Sep-21 23:44 045 11.7
2014-Sep-21 23:34 045 11.7
2014-Sep-21 23:24 045 11.7
2014-Sep-21 23:14 045 11.7
2014-Sep-21 23:04 045 12.2
2014-Sep-21 22:54 045 12.2
2014-Sep-21 22:44 045 12.2
2014-Sep-21 22:34 045 12.2
2014-Sep-21 22:24 045 12.2
2014-Sep-21 22:14 045 12.2
2014-Sep-21 22:04 045 12.8
2014-Sep-21 21:54 045 12.8
2014-Sep-21 21:44 045 12.8
2014-Sep-21 21:34 083 12.8
2014-Sep-21 21:24 128 12.8
2014-Sep-21 21:14 128 12.8
2014-Sep-21 21:04 128 12.8
2014-Sep-21 20:54 128 13.3
2014-Sep-21 20:44 128 13.3
2014-Sep-21 20:34 158 13.3
2014-Sep-21 20:24 158 13.3
2014-Sep-21 20:14 158 13.3
2014-Sep-21 20:04 158 13.9
2014-Sep-21 19:54 158 13.9
2014-Sep-21 19:44 158 13.9
2014-Sep-21 19:33 158 13.9
2014-Sep-21 19:23 158 13.9
2014-Sep-21 19:13 047 13.9
2014-Sep-21 19:03 047 14.4
2014-Sep-21 18:53 047 14.4
2014-Sep-21 18:43 047 14.4
2014-Sep-21 18:33 204 14.4
2014-Sep-21 18:23 204 14.4
2014-Sep-21 18:13 204 14.4
2014-Sep-21 18:03 204 14.4
2014-Sep-21 17:53 204 14.4
2014-Sep-21 17:43 204 14.4
2014-Sep-21 17:33 204 14.4
2014-Sep-21 17:23 204 14.4
2014-Sep-21 17:13 129 14.4
2014-Sep-21 17:03 129 14.4
2014-Sep-21 16:53 143 14.4
2014-Sep-21 16:43 148 0 gusting 1 15.0
2014-Sep-21 16:33 083 15.0
2014-Sep-21 16:23 083 15.0
2014-Sep-21 16:13 083 15.0
2014-Sep-21 16:03 083 15.0
2014-Sep-21 15:53 183 15.6
2014-Sep-21 15:43 188 1 gusting 6 15.6
2014-Sep-21 15:33 125 15.6
2014-Sep-21 15:23 163 15.6
2014-Sep-21 15:13 165 15.6
2014-Sep-21 15:03 265 15.6
2014-Sep-21 14:53 127 15.6
2014-Sep-21 14:43 093 15.6
2014-Sep-21 14:33 139 0 gusting 6 16.1
2014-Sep-21 14:23 201 1 gusting 7 16.1
2014-Sep-21 14:13 200 0 gusting 4 16.1
2014-Sep-21 14:03 164 0 gusting 7 16.1
2014-Sep-21 13:53 190 2 gusting 7 16.1
2014-Sep-21 13:43 195 3 gusting 7 16.1
2014-Sep-21 13:33 203 3 gusting 7 16.7
2014-Sep-21 13:23 180 2 gusting 9 16.7
2014-Sep-21 13:13 149 0 gusting 9 16.7
2014-Sep-21 13:03 199 3 gusting 6 16.7
2014-Sep-21 12:53 195 2 gusting 7 16.7
2014-Sep-21 12:42 198 4 gusting 8 16.7
2014-Sep-21 12:32 182 2 gusting 8 16.7
2014-Sep-21 12:22 195 2 gusting 9 16.7
2014-Sep-21 12:12 211 3 gusting 9 16.7
2014-Sep-21 12:02 193 2 gusting 8 16.7
2014-Sep-21 11:52 200 5 gusting 10 16.7
2014-Sep-21 11:42 170 2 gusting 9 16.7
2014-Sep-21 11:32 206 5 gusting 8 16.7
2014-Sep-21 11:22 196 3 gusting 8 16.7
2014-Sep-21 11:12 200 2 gusting 6 16.7
2014-Sep-21 11:02 189 3 gusting 8 16.7
2014-Sep-21 10:52 174 1 gusting 11 16.7
2014-Sep-21 10:42 191 2 gusting 6 16.7
2014-Sep-21 10:32 195 4 gusting 9 16.7
2014-Sep-21 10:22 170 2 gusting 6 16.7
2014-Sep-21 10:12 195 1 gusting 9 16.7
2014-Sep-21 10:02 192 3 gusting 7 16.7
2014-Sep-21 09:40 200 3 gusting 10 16.7
2014-Sep-21 09:30 199 4 gusting 7 16.1
2014-Sep-21 09:20 184 3 gusting 8 16.1
2014-Sep-21 09:10 193 1 gusting 6 16.1
2014-Sep-21 09:00 182 1 gusting 7 15.6
2014-Sep-21 08:50 189 3 gusting 9 15.6
2014-Sep-21 08:40 177 3 gusting 8 15.6
2014-Sep-21 08:30 170 0 gusting 9 15.6
2014-Sep-21 08:20 172 1 gusting 6 15.6
2014-Sep-21 08:10 193 5 gusting 9 15.0
2014-Sep-21 08:00 199 5 gusting 9 15.0
2014-Sep-21 07:50 205 4 gusting 8 15.0
2014-Sep-21 07:40 196 3 gusting 9 14.4
2014-Sep-21 07:30 196 4 gusting 9 14.4
2014-Sep-21 07:20 181 14.4
2014-Sep-21 07:10 208 2 gusting 8 13.9
2014-Sep-21 07:00 200 2 gusting 6 13.9
2014-Sep-21 06:50 207 2 gusting 5 13.9
2014-Sep-21 06:39 219 3 gusting 6 13.9
2014-Sep-21 06:29 238 1 gusting 4 13.9
2014-Sep-21 06:19 200 1 gusting 6 13.3
2014-Sep-21 06:09 184 13.3
2014-Sep-21 05:59 240 12.8
2014-Sep-21 05:49 192 0 gusting 2 12.8
2014-Sep-21 05:39 199 12.2
2014-Sep-21 05:29 128 11.7
2014-Sep-21 05:19 224 11.7
2014-Sep-21 05:09 142 11.7
2014-Sep-21 04:59 142 11.7
2014-Sep-21 04:49 142 11.7
2014-Sep-21 04:39 142 11.7
2014-Sep-21 04:29 142 11.1
2014-Sep-21 04:19 142 11.1
2014-Sep-21 04:09 142 11.1